Location: Newark
(43.0000°N, 1.6781°W)
Time: 13:47:02
(UTC+00:00)

ISS - Visible Passes

Search period start: 25 February 2021 00:00
Search period end: 07 March 2021 00:00
Orbit: 417 x 422 km, 51.6° (Epoch: 26 February)

Date Brightness Start Highest point End Pass type
(mag) Time Alt. Az. Time Alt. Az. Time Alt. Az.
25 Feb -3.2 05:23:12 37° WNW 05:23:49 42° NNW 05:27:03 10° NE visible
26 Feb -2.1 04:37:43 31° NE 04:37:43 31° NE 04:39:40 10° NE visible
26 Feb -2.0 06:10:57 10° WNW 06:13:36 21° N 06:16:15 10° NE visible
27 Feb -0.2 03:52:10 10° ENE 03:52:10 10° ENE 03:52:13 10° ENE visible
27 Feb -2.3 05:25:08 22° NW 05:25:58 25° NNW 05:28:49 10° NE visible
28 Feb -1.8 04:39:31 24° NNE 04:39:31 24° NNE 04:41:25 10° NE visible
28 Feb -1.7 06:13:28 10° NW 06:15:54 18° N 06:18:20 10° NE visible
01 Mar -0.3 03:53:52 11° NE 03:53:52 11° NE 03:54:00 10° NE visible
01 Mar -1.7 05:26:49 15° NW 05:28:12 19° N 05:30:43 10° NE visible
02 Mar -1.6 04:41:08 20° N 04:41:08 20° N 04:43:10 10° NE visible
03 Mar -0.4 03:55:25 11° NE 03:55:25 11° NE 03:55:41 10° NE visible
03 Mar -1.6 05:28:23 12° NW 05:30:27 19° N 05:32:56 10° NE visible
04 Mar -1.6 04:42:40 18° N 04:42:43 18° N 04:45:10 10° NE visible
05 Mar -0.6 03:56:57 13° NE 03:56:57 13° NE 03:57:29 10° NE visible
05 Mar -1.8 05:29:54 10° NW 05:32:37 23° NNE 05:35:24 10° ENE visible
06 Mar -1.7 04:44:12 19° N 04:44:53 20° N 04:47:30 10° ENE visible
